This is the latest recevied weather packets stored in our database for station/object OK2JV-13. If no packets are shown the sender has not sent any weather packets the latest 10 day(s).
| Time | Temp. | Humidity | Pressure | Rain* | Wind** | Luminosity | Snow |
|---|---|---|---|---|---|---|---|
| 1787601664 | 13.33° C | 61% | 1017.1 hPa | - | - | - | - |
| 1787601060 | 13.33° C | 60% | 1017.3 hPa | - | - | - | - |
| 1787600456 | 13.33° C | 60% | 1017.2 hPa | - | - | - | - |
| 1787599850 | 13.33° C | 59% | 1017.3 hPa | - | - | - | - |
| 1787599246 | 13.33° C | 57% | 1017.4 hPa | - | - | - | - |
| 1787598642 | 13.33° C | 55% | 1017.3 hPa | - | - | - | - |
| 1787598039 | 13.89° C | 52% | 1017.3 hPa | - | - | - | - |
| 1787597435 | 14.44° C | 51% | 1017.6 hPa | - | - | - | - |
| 1787596831 | 14.44° C | 50% | 1017.5 hPa | - | - | - | - |
| 1787596227 | 15° C | 50% | 1017.5 hPa | - | - | - | - |
| 1787595621 | 15.56° C | 49% | 1017.4 hPa | - | - | - | - |
| 1787595017 | 16.11° C | 49% | 1017.5 hPa | - | - | - | - |
| 1787594413 | 16.67° C | 47% | 1017.6 hPa | - | - | - | - |
| 1787593809 | 17.22° C | 46% | 1017.4 hPa | - | - | - | - |
| 1787593204 | 17.78° C | 41% | 1017.6 hPa | - | - | - | - |
| 1787592600 | 18.33° C | 41% | 1017.5 hPa | - | - | - | - |
| 1787591996 | 18.89° C | 40% | 1017.6 hPa | - | - | - | - |
| 1787591392 | 19.44° C | 40% | 1017.6 hPa | - | - | - | - |
| 1787590788 | 19.44° C | 40% | 1017.8 hPa | - | - | - | - |
| 1787590185 | 20° C | 39% | 1018 hPa | - | - | - | - |
| 1787589579 | 20.56° C | 39% | 1018 hPa | - | - | - | - |
| 1787588975 | 20.56° C | 39% | 1018.2 hPa | - | - | - | - |
| 1787588372 | 20.56° C | 37% | 1018.1 hPa | - | - | - | - |
| 1787587768 | 20.56° C | 37% | 1018 hPa | - | - | - | - |
| 1787587164 | 21.11° C | 37% | 1018.2 hPa | - | - | - | - |
* Rain since midnight (hover to see other rain measurements)
** Current wind speed in m/s (hover to see current wind gust speed)